owner,sensor,date,latitude,longitude,vertical_datum,mass_concentration_of_oxygen_in_sea_water,qcFlag 
DISL,ioos:station:DISL:MHPA:1,2012-11-01T00:00:00Z,30.6671,-87.9365,3.753,10.35,1111122 
DISL,ioos:station:DISL:MHPA:1,2012-11-01T00:30:00Z,30.6671,-87.9365,3.824,10.23,1111122 
DISL,ioos:station:DISL:MHPA:1,2012-11-01T01:00:00Z,30.6671,-87.9365,3.873,10.11,1111122 
DISL,ioos:station:DISL:MHPA:1,2012-11-01T01:30:00Z,30.6671,-87.9365,3.95,9.86,1111122 
DISL,ioos:station:DISL:MHPA:1,2012-11-01T02:00:00Z,30.6671,-87.9365,4.021,9.77,1111122 
DISL,ioos:station:DISL:MHPA:1,2012-11-01T02:30:00Z,30.6671,-87.9365,4.092,9.75,1111122 
DISL,ioos:station:DISL:MHPA:1,2012-11-01T03:00:00Z,30.6671,-87.9365,4.195,9.66,1111122 
DISL,ioos:station:DISL:MHPA:1,2012-11-01T03:30:00Z,30.6671,-87.9365,4.294,9.53,1111122 
DISL,ioos:station:DISL:MHPA:1,2012-11-01T04:00:00Z,30.6671,-87.9365,4.367,9.47,1111122 
DISL,ioos:station:DISL:MHPA:1,2012-11-01T04:30:00Z,30.6671,-87.9365,4.423,9.5,1111122 
DISL,ioos:station:DISL:MHPA:1,2012-11-01T05:00:00Z,30.6671,-87.9365,4.481,9.47,1111122 
DISL,ioos:station:DISL:MHPA:1,2012-11-01T05:30:00Z,30.6671,-87.9365,4.504,9.46,1111122 
DISL,ioos:station:DISL:MHPA:1,2012-11-01T06:00:00Z,30.6671,-87.9365,4.542,9.38,1111122 
DISL,ioos:station:DISL:MHPA:1,2012-11-01T06:30:00Z,30.6671,-87.9365,4.537,9.31,1111122 
DISL,ioos:station:DISL:MHPA:1,2012-11-01T07:00:00Z,30.6671,-87.9365,4.48,9.18,1111122 
DISL,ioos:station:DISL:MHPA:1,2012-11-01T07:30:00Z,30.6671,-87.9365,4.42,9.14,1111122 
DISL,ioos:station:DISL:MHPA:1,2012-11-01T08:00:00Z,30.6671,-87.9365,4.357,9.1,1111122 
DISL,ioos:station:DISL:MHPA:1,2012-11-01T08:30:00Z,30.6671,-87.9365,4.207,9.4,1111122 
DISL,ioos:station:DISL:MHPA:1,2012-11-01T09:00:00Z,30.6671,-87.9365,4.066,9.15,1111122 
DISL,ioos:station:DISL:MHPA:1,2012-11-01T09:30:00Z,30.6671,-87.9365,3.938,8.81,1111122 
DISL,ioos:station:DISL:MHPA:1,2012-11-01T10:00:00Z,30.6671,-87.9365,3.81,8.55,1111122 
DISL,ioos:station:DISL:MHPA:1,2012-11-01T10:30:00Z,30.6671,-87.9365,3.66,8.4,1111122 
DISL,ioos:station:DISL:MHPA:1,2012-11-01T11:00:00Z,30.6671,-87.9365,3.508,8.2,1111122 
DISL,ioos:station:DISL:MHPA:1,2012-11-01T11:30:00Z,30.6671,-87.9365,3.382,8.3,1111122 
DISL,ioos:station:DISL:MHPA:1,2012-11-01T12:00:00Z,30.6671,-87.9365,3.239,8.23,1111122 
DISL,ioos:station:DISL:MHPA:1,2012-11-01T12:30:00Z,30.6671,-87.9365,3.1,8.19,1111122 
DISL,ioos:station:DISL:MHPA:1,2012-11-01T13:00:00Z,30.6671,-87.9365,2.991,7.95,1111122 
DISL,ioos:station:DISL:MHPA:1,2012-11-01T13:30:00Z,30.6671,-87.9365,2.883,7.96,1111122 
DISL,ioos:station:DISL:MHPA:1,2012-11-01T14:00:00Z,30.6671,-87.9365,2.777,8.03,1111122 
DISL,ioos:station:DISL:MHPA:1,2012-11-01T14:30:00Z,30.6671,-87.9365,2.684,8.18,1111122 
DISL,ioos:station:DISL:MHPA:1,2012-11-01T15:00:00Z,30.6671,-87.9365,2.593,8.44,1111122 
DISL,ioos:station:DISL:MHPA:1,2012-11-01T15:30:00Z,30.6671,-87.9365,2.516,8.57,1111122 
DISL,ioos:station:DISL:MHPA:1,2012-11-01T16:00:00Z,30.6671,-87.9365,2.456,8.79,1111122 
DISL,ioos:station:DISL:MHPA:1,2012-11-01T16:30:00Z,30.6671,-87.9365,2.423,9.32,1111122 
DISL,ioos:station:DISL:MHPA:1,2012-11-01T17:00:00Z,30.6671,-87.9365,2.402,9.72,1111122 
DISL,ioos:station:DISL:MHPA:1,2012-11-01T17:30:00Z,30.6671,-87.9365,2.403,10.1,1111122 
DISL,ioos:station:DISL:MHPA:1,2012-11-01T18:00:00Z,30.6671,-87.9365,2.432,10.63,1111122 
DISL,ioos:station:DISL:MHPA:1,2012-11-01T18:30:00Z,30.6671,-87.9365,2.484,11.1,1111122 
DISL,ioos:station:DISL:MHPA:1,2012-11-01T19:00:00Z,30.6671,-87.9365,2.572,11.23,1111122 
DISL,ioos:station:DISL:MHPA:1,2012-11-01T19:30:00Z,30.6671,-87.9365,2.697,11.31,1111122 
DISL,ioos:station:DISL:MHPA:1,2012-11-01T20:00:00Z,30.6671,-87.9365,2.844,11.34,1111122 
DISL,ioos:station:DISL:MHPA:1,2012-11-01T20:30:00Z,30.6671,-87.9365,3.015,11.74,1111122 
DISL,ioos:station:DISL:MHPA:1,2012-11-01T21:00:00Z,30.6671,-87.9365,3.183,12.26,1111122 
DISL,ioos:station:DISL:MHPA:1,2012-11-01T21:30:00Z,30.6671,-87.9365,3.352,12.65,1111122 
DISL,ioos:station:DISL:MHPA:1,2012-11-01T22:00:00Z,30.6671,-87.9365,3.517,12.06,1111122 
DISL,ioos:station:DISL:MHPA:1,2012-11-01T22:30:00Z,30.6671,-87.9365,3.673,11.87,1111122 
DISL,ioos:station:DISL:MHPA:1,2012-11-01T23:00:00Z,30.6671,-87.9365,3.754,11.94,1111122 
DISL,ioos:station:DISL:MHPA:1,2012-11-01T23:30:00Z,30.6671,-87.9365,3.845,11.56,1111122 
DISL,ioos:station:DISL:MHPA:1,2012-11-02T00:00:00Z,30.6671,-87.9365,3.944,10.83,1111122 
DISL,ioos:station:DISL:MHPA:1,2012-11-02T00:30:00Z,30.6671,-87.9365,4.014,10.66,1111122 
DISL,ioos:station:DISL:MHPA:1,2012-11-02T01:00:00Z,30.6671,-87.9365,4.077,10.45,1111122 
DISL,ioos:station:DISL:MHPA:1,2012-11-02T01:30:00Z,30.6671,-87.9365,4.184,10.14,1111122 
DISL,ioos:station:DISL:MHPA:1,2012-11-02T02:00:00Z,30.6671,-87.9365,4.294,10.07,1111122 
DISL,ioos:station:DISL:MHPA:1,2012-11-02T02:30:00Z,30.6671,-87.9365,4.374,9.36,1111122 
DISL,ioos:station:DISL:MHPA:1,2012-11-02T03:00:00Z,30.6671,-87.9365,4.469,9.54,1111122 
DISL,ioos:station:DISL:MHPA:1,2012-11-02T03:30:00Z,30.6671,-87.9365,4.546,9.13,1111122 
DISL,ioos:station:DISL:MHPA:1,2012-11-02T04:00:00Z,30.6671,-87.9365,4.63,8.58,1111122 
DISL,ioos:station:DISL:MHPA:1,2012-11-02T04:30:00Z,30.6671,-87.9365,4.694,8.48,1111122 
DISL,ioos:station:DISL:MHPA:1,2012-11-02T05:00:00Z,30.6671,-87.9365,4.766,8.34,1111122 
DISL,ioos:station:DISL:MHPA:1,2012-11-02T05:30:00Z,30.6671,-87.9365,4.774,8.12,1111122 
DISL,ioos:station:DISL:MHPA:1,2012-11-02T06:00:00Z,30.6671,-87.9365,4.792,8.15,1111122 
DISL,ioos:station:DISL:MHPA:1,2012-11-02T06:30:00Z,30.6671,-87.9365,4.791,8.24,1111122 
DISL,ioos:station:DISL:MHPA:1,2012-11-02T07:00:00Z,30.6671,-87.9365,4.759,7.8,1111122 
DISL,ioos:station:DISL:MHPA:1,2012-11-02T07:30:00Z,30.6671,-87.9365,4.701,8.19,1111122 
DISL,ioos:station:DISL:MHPA:1,2012-11-02T08:00:00Z,30.6671,-87.9365,4.636,7.87,1111122 
DISL,ioos:station:DISL:MHPA:1,2012-11-02T08:30:00Z,30.6671,-87.9365,4.57,7.67,1111122 
DISL,ioos:station:DISL:MHPA:1,2012-11-02T09:00:00Z,30.6671,-87.9365,4.468,7.61,1111122 
DISL,ioos:station:DISL:MHPA:1,2012-11-02T09:30:00Z,30.6671,-87.9365,4.332,7.26,1111122 
DISL,ioos:station:DISL:MHPA:1,2012-11-02T10:00:00Z,30.6671,-87.9365,4.22,7.21,1111122 
DISL,ioos:station:DISL:MHPA:1,2012-11-02T10:30:00Z,30.6671,-87.9365,4.084,6.94,1111122 
DISL,ioos:station:DISL:MHPA:1,2012-11-02T11:00:00Z,30.6671,-87.9365,3.947,7.04,1111122 
DISL,ioos:station:DISL:MHPA:1,2012-11-02T11:30:00Z,30.6671,-87.9365,3.821,6.7,1111122 
DISL,ioos:station:DISL:MHPA:1,2012-11-02T12:00:00Z,30.6671,-87.9365,3.702,6.73,1111122 
DISL,ioos:station:DISL:MHPA:1,2012-11-02T12:30:00Z,30.6671,-87.9365,3.579,6.81,1111122 
DISL,ioos:station:DISL:MHPA:1,2012-11-02T13:00:00Z,30.6671,-87.9365,3.466,7.05,1111122 
DISL,ioos:station:DISL:MHPA:1,2012-11-02T13:30:00Z,30.6671,-87.9365,3.368,7.06,1111122 
DISL,ioos:station:DISL:MHPA:1,2012-11-02T14:00:00Z,30.6671,-87.9365,3.274,7.22,1111122 
DISL,ioos:station:DISL:MHPA:1,2012-11-02T14:30:00Z,30.6671,-87.9365,3.191,7.25,1111122 
DISL,ioos:station:DISL:MHPA:1,2012-11-02T15:00:00Z,30.6671,-87.9365,3.119,7.26,1111122 
DISL,ioos:station:DISL:MHPA:1,2012-11-02T15:30:00Z,30.6671,-87.9365,3.052,7.46,1111122 
DISL,ioos:station:DISL:MHPA:1,2012-11-02T16:00:00Z,30.6671,-87.9365,3.001,7.97,1111122 
DISL,ioos:station:DISL:MHPA:1,2012-11-02T16:30:00Z,30.6671,-87.9365,2.97,8.26,1111122 
DISL,ioos:station:DISL:MHPA:1,2012-11-02T17:00:00Z,30.6671,-87.9365,2.959,8.1,1111122 
DISL,ioos:station:DISL:MHPA:1,2012-11-02T17:30:00Z,30.6671,-87.9365,2.96,8.19,1111122 
DISL,ioos:station:DISL:MHPA:1,2012-11-02T18:00:00Z,30.6671,-87.9365,2.984,8.51,1111122 
DISL,ioos:station:DISL:MHPA:1,2012-11-02T18:30:00Z,30.6671,-87.9365,3.051,9.98,1111122 
DISL,ioos:station:DISL:MHPA:1,2012-11-02T19:00:00Z,30.6671,-87.9365,3.148,10.22,1111122 
DISL,ioos:station:DISL:MHPA:1,2012-11-02T19:30:00Z,30.6671,-87.9365,3.254,10.43,1111122 
DISL,ioos:station:DISL:MHPA:1,2012-11-02T20:00:00Z,30.6671,-87.9365,3.337,10.61,1111122 
DISL,ioos:station:DISL:MHPA:1,2012-11-02T20:30:00Z,30.6671,-87.9365,3.443,10.64,1111122 
DISL,ioos:station:DISL:MHPA:1,2012-11-02T21:00:00Z,30.6671,-87.9365,3.506,10.77,1111122 
DISL,ioos:station:DISL:MHPA:1,2012-11-02T21:30:00Z,30.6671,-87.9365,3.617,11.3,1111122 
DISL,ioos:station:DISL:MHPA:1,2012-11-02T22:00:00Z,30.6671,-87.9365,3.715,11.48,1111122 
DISL,ioos:station:DISL:MHPA:1,2012-11-02T22:30:00Z,30.6671,-87.9365,3.786,11.02,1111122 
DISL,ioos:station:DISL:MHPA:1,2012-11-02T23:00:00Z,30.6671,-87.9365,3.861,11.36,1111122 
DISL,ioos:station:DISL:MHPA:1,2012-11-02T23:30:00Z,30.6671,-87.9365,3.906,10.68,1111122 
DISL,ioos:station:DISL:MHPA:1,2012-11-03T00:00:00Z,30.6671,-87.9365,3.99,9.55,1111122 
DISL,ioos:station:DISL:MHPA:1,2012-11-03T00:30:00Z,30.6671,-87.9365,4.06,9.13,1111122 
DISL,ioos:station:DISL:MHPA:1,2012-11-03T01:00:00Z,30.6671,-87.9365,4.137,9.15,1111122 
DISL,ioos:station:DISL:MHPA:1,2012-11-03T01:30:00Z,30.6671,-87.9365,4.221,9.13,1111122 
DISL,ioos:station:DISL:MHPA:1,2012-11-03T02:00:00Z,30.6671,-87.9365,4.322,8.97,1111122 
DISL,ioos:station:DISL:MHPA:1,2012-11-03T02:30:00Z,30.6671,-87.9365,4.382,9.01,1111122 
DISL,ioos:station:DISL:MHPA:1,2012-11-03T03:00:00Z,30.6671,-87.9365,4.453,8.99,1111122 
DISL,ioos:station:DISL:MHPA:1,2012-11-03T03:30:00Z,30.6671,-87.9365,4.537,8.81,1111122 
DISL,ioos:station:DISL:MHPA:1,2012-11-03T04:00:00Z,30.6671,-87.9365,4.625,8.87,1111122 
DISL,ioos:station:DISL:MHPA:1,2012-11-03T04:30:00Z,30.6671,-87.9365,4.692,8.85,1111122 
DISL,ioos:station:DISL:MHPA:1,2012-11-03T05:00:00Z,30.6671,-87.9365,4.765,8.87,1111122 
DISL,ioos:station:DISL:MHPA:1,2012-11-03T05:30:00Z,30.6671,-87.9365,4.794,8.49,1111122 
DISL,ioos:station:DISL:MHPA:1,2012-11-03T06:00:00Z,30.6671,-87.9365,4.815,7.99,1111122 
DISL,ioos:station:DISL:MHPA:1,2012-11-03T06:30:00Z,30.6671,-87.9365,4.833,7.54,1111122 
DISL,ioos:station:DISL:MHPA:1,2012-11-03T07:00:00Z,30.6671,-87.9365,4.791,6.99,1111122 
DISL,ioos:station:DISL:MHPA:1,2012-11-03T07:30:00Z,30.6671,-87.9365,4.758,7.24,1111122 
DISL,ioos:station:DISL:MHPA:1,2012-11-03T08:00:00Z,30.6671,-87.9365,4.718,7.16,1111122 
DISL,ioos:station:DISL:MHPA:1,2012-11-03T08:30:00Z,30.6671,-87.9365,4.628,6.91,1111122 
DISL,ioos:station:DISL:MHPA:1,2012-11-03T09:00:00Z,30.6671,-87.9365,4.518,7.08,1111122 
DISL,ioos:station:DISL:MHPA:1,2012-11-03T09:30:00Z,30.6671,-87.9365,4.433,6.78,1111122 
DISL,ioos:station:DISL:MHPA:1,2012-11-03T10:00:00Z,30.6671,-87.9365,4.318,6.34,1111122 
DISL,ioos:station:DISL:MHPA:1,2012-11-03T10:30:00Z,30.6671,-87.9365,4.201,6.14,1111122 
DISL,ioos:station:DISL:MHPA:1,2012-11-03T11:00:00Z,30.6671,-87.9365,4.089,6.25,1111122 
DISL,ioos:station:DISL:MHPA:1,2012-11-03T11:30:00Z,30.6671,-87.9365,3.948,6.22,1111122 
DISL,ioos:station:DISL:MHPA:1,2012-11-03T12:00:00Z,30.6671,-87.9365,3.818,6.08,1111122 
DISL,ioos:station:DISL:MHPA:1,2012-11-03T12:30:00Z,30.6671,-87.9365,3.695,6.25,1111122 
DISL,ioos:station:DISL:MHPA:1,2012-11-03T13:00:00Z,30.6671,-87.9365,3.583,6.3,1111122 
DISL,ioos:station:DISL:MHPA:1,2012-11-03T13:30:00Z,30.6671,-87.9365,3.48,6.27,1111122 
DISL,ioos:station:DISL:MHPA:1,2012-11-03T14:00:00Z,30.6671,-87.9365,3.371,6.15,1111122 
DISL,ioos:station:DISL:MHPA:1,2012-11-03T14:30:00Z,30.6671,-87.9365,3.274,6.63,1111122 
DISL,ioos:station:DISL:MHPA:1,2012-11-03T15:00:00Z,30.6671,-87.9365,3.181,6.55,1111122 
DISL,ioos:station:DISL:MHPA:1,2012-11-03T15:30:00Z,30.6671,-87.9365,3.104,6.77,1111122 
DISL,ioos:station:DISL:MHPA:1,2012-11-03T16:00:00Z,30.6671,-87.9365,3.032,7.21,1111122 
DISL,ioos:station:DISL:MHPA:1,2012-11-03T16:30:00Z,30.6671,-87.9365,2.978,8.17,1111122 
DISL,ioos:station:DISL:MHPA:1,2012-11-03T17:00:00Z,30.6671,-87.9365,2.949,7.74,1111122 
DISL,ioos:station:DISL:MHPA:1,2012-11-03T17:30:00Z,30.6671,-87.9365,2.901,8.19,1111122 
DISL,ioos:station:DISL:MHPA:1,2012-11-03T18:00:00Z,30.6671,-87.9365,2.874,8.06,1111122 
DISL,ioos:station:DISL:MHPA:1,2012-11-03T18:30:00Z,30.6671,-87.9365,2.872,8.65,1111122 
DISL,ioos:station:DISL:MHPA:1,2012-11-03T19:00:00Z,30.6671,-87.9365,2.927,9.54,1111122 
DISL,ioos:station:DISL:MHPA:1,2012-11-03T19:30:00Z,30.6671,-87.9365,3.039,9.69,1111122 
DISL,ioos:station:DISL:MHPA:1,2012-11-03T20:00:00Z,30.6671,-87.9365,3.126,10.05,1111122 
DISL,ioos:station:DISL:MHPA:1,2012-11-03T20:30:00Z,30.6671,-87.9365,3.219,9.79,1111122 
DISL,ioos:station:DISL:MHPA:1,2012-11-03T21:00:00Z,30.6671,-87.9365,3.329,10.16,1111122 
DISL,ioos:station:DISL:MHPA:1,2012-11-03T21:30:00Z,30.6671,-87.9365,3.45,9.87,1111122 
DISL,ioos:station:DISL:MHPA:1,2012-11-03T22:00:00Z,30.6671,-87.9365,3.557,9.93,1111122 
DISL,ioos:station:DISL:MHPA:1,2012-11-03T22:30:00Z,30.6671,-87.9365,3.653,10.17,1111122 
DISL,ioos:station:DISL:MHPA:1,2012-11-03T23:00:00Z,30.6671,-87.9365,3.77,10.9,1111122 
DISL,ioos:station:DISL:MHPA:1,2012-11-03T23:30:00Z,30.6671,-87.9365,3.852,10.49,1111122 
DISL,ioos:station:DISL:MHPA:1,2012-11-04T00:00:00Z,30.6671,-87.9365,3.922,9.41,1111122 
DISL,ioos:station:DISL:MHPA:1,2012-11-04T00:30:00Z,30.6671,-87.9365,3.993,9.1,1111122 
DISL,ioos:station:DISL:MHPA:1,2012-11-04T01:00:00Z,30.6671,-87.9365,4.073,8.7,1111122 
DISL,ioos:station:DISL:MHPA:1,2012-11-04T01:30:00Z,30.6671,-87.9365,4.122,8.43,1111122 
DISL,ioos:station:DISL:MHPA:1,2012-11-04T02:00:00Z,30.6671,-87.9365,4.206,8.23,1111122 
DISL,ioos:station:DISL:MHPA:1,2012-11-04T02:30:00Z,30.6671,-87.9365,4.294,7.95,1111122 
DISL,ioos:station:DISL:MHPA:1,2012-11-04T03:00:00Z,30.6671,-87.9365,4.358,7.54,1111122 
DISL,ioos:station:DISL:MHPA:1,2012-11-04T03:30:00Z,30.6671,-87.9365,4.451,7.31,1111122 
DISL,ioos:station:DISL:MHPA:1,2012-11-04T04:00:00Z,30.6671,-87.9365,4.514,7.36,1111122 
DISL,ioos:station:DISL:MHPA:1,2012-11-04T04:30:00Z,30.6671,-87.9365,4.577,7.94,1111122 
DISL,ioos:station:DISL:MHPA:1,2012-11-04T05:00:00Z,30.6671,-87.9365,4.636,7.81,1111122 
DISL,ioos:station:DISL:MHPA:1,2012-11-04T05:30:00Z,30.6671,-87.9365,4.694,7.43,1111122 
DISL,ioos:station:DISL:MHPA:1,2012-11-04T06:00:00Z,30.6671,-87.9365,4.705,6.83,1111122 
DISL,ioos:station:DISL:MHPA:1,2012-11-04T06:30:00Z,30.6671,-87.9365,4.722,7.01,1111122 
DISL,ioos:station:DISL:MHPA:1,2012-11-04T07:00:00Z,30.6671,-87.9365,4.752,6.87,1111122 
DISL,ioos:station:DISL:MHPA:1,2012-11-04T07:30:00Z,30.6671,-87.9365,4.723,6.8,1111122 
DISL,ioos:station:DISL:MHPA:1,2012-11-04T08:00:00Z,30.6671,-87.9365,4.696,6.61,1111122 
DISL,ioos:station:DISL:MHPA:1,2012-11-04T08:30:00Z,30.6671,-87.9365,4.633,7.62,1111122 
DISL,ioos:station:DISL:MHPA:1,2012-11-04T09:00:00Z,30.6671,-87.9365,4.554,7.31,1111122 
DISL,ioos:station:DISL:MHPA:1,2012-11-04T09:30:00Z,30.6671,-87.9365,4.459,6.34,1111122 
DISL,ioos:station:DISL:MHPA:1,2012-11-04T10:00:00Z,30.6671,-87.9365,4.347,6.88,1111122 
DISL,ioos:station:DISL:MHPA:1,2012-11-04T10:30:00Z,30.6671,-87.9365,4.228,6.4,1111122 
DISL,ioos:station:DISL:MHPA:1,2012-11-04T11:00:00Z,30.6671,-87.9365,4.113,6.26,1111122 
DISL,ioos:station:DISL:MHPA:1,2012-11-04T11:30:00Z,30.6671,-87.9365,3.992,6.5,1111122 
DISL,ioos:station:DISL:MHPA:1,2012-11-04T12:00:00Z,30.6671,-87.9365,3.869,6.47,1111122 
DISL,ioos:station:DISL:MHPA:1,2012-11-04T12:30:00Z,30.6671,-87.9365,3.76,6.38,1111122 
DISL,ioos:station:DISL:MHPA:1,2012-11-04T13:00:00Z,30.6671,-87.9365,3.642,5.94,1111122 
DISL,ioos:station:DISL:MHPA:1,2012-11-04T13:30:00Z,30.6671,-87.9365,3.544,5.97,1111122 
DISL,ioos:station:DISL:MHPA:1,2012-11-04T14:00:00Z,30.6671,-87.9365,3.424,6.27,1111122 
DISL,ioos:station:DISL:MHPA:1,2012-11-04T14:30:00Z,30.6671,-87.9365,3.302,6.35,1111122 
DISL,ioos:station:DISL:MHPA:1,2012-11-04T15:00:00Z,30.6671,-87.9365,3.191,6.67,1111122 
DISL,ioos:station:DISL:MHPA:1,2012-11-04T15:30:00Z,30.6671,-87.9365,3.094,6.61,1111122 
DISL,ioos:station:DISL:MHPA:1,2012-11-04T16:00:00Z,30.6671,-87.9365,2.976,6.6,1111122 
DISL,ioos:station:DISL:MHPA:1,2012-11-04T16:30:00Z,30.6671,-87.9365,2.894,6.72,1111122 
DISL,ioos:station:DISL:MHPA:1,2012-11-04T17:00:00Z,30.6671,-87.9365,2.836,7.13,1111122 
DISL,ioos:station:DISL:MHPA:1,2012-11-04T17:30:00Z,30.6671,-87.9365,2.782,7.71,1111122 
DISL,ioos:station:DISL:MHPA:1,2012-11-04T18:00:00Z,30.6671,-87.9365,2.78,8.01,1111122 
DISL,ioos:station:DISL:MHPA:1,2012-11-04T18:30:00Z,30.6671,-87.9365,2.763,9.01,1111122 
DISL,ioos:station:DISL:MHPA:1,2012-11-04T19:00:00Z,30.6671,-87.9365,2.736,9.08,1111122 
DISL,ioos:station:DISL:MHPA:1,2012-11-04T19:30:00Z,30.6671,-87.9365,2.749,9.06,1111122 
DISL,ioos:station:DISL:MHPA:1,2012-11-04T20:00:00Z,30.6671,-87.9365,2.776,8.06,1111122 
DISL,ioos:station:DISL:MHPA:1,2012-11-04T20:30:00Z,30.6671,-87.9365,2.82,9.05,1111122 
DISL,ioos:station:DISL:MHPA:1,2012-11-04T21:00:00Z,30.6671,-87.9365,2.866,9.86,1111122 
DISL,ioos:station:DISL:MHPA:1,2012-11-04T21:30:00Z,30.6671,-87.9365,2.926,9.52,1111122 
DISL,ioos:station:DISL:MHPA:1,2012-11-04T22:00:00Z,30.6671,-87.9365,3.034,8.91,1111122 
DISL,ioos:station:DISL:MHPA:1,2012-11-04T22:30:00Z,30.6671,-87.9365,3.173,8.57,1111122 
DISL,ioos:station:DISL:MHPA:1,2012-11-04T23:00:00Z,30.6671,-87.9365,3.305,8.07,1111122 
DISL,ioos:station:DISL:MHPA:1,2012-11-04T23:30:00Z,30.6671,-87.9365,3.429,8.98,1111122 
DISL,ioos:station:DISL:MHPA:1,2012-11-05T00:00:00Z,30.6671,-87.9365,3.458,8.49,1111122 
DISL,ioos:station:DISL:MHPA:1,2012-11-05T00:30:00Z,30.6671,-87.9365,3.452,8.4,1111122 
DISL,ioos:station:DISL:MHPA:1,2012-11-05T01:00:00Z,30.6671,-87.9365,3.517,7.75,1111122 
DISL,ioos:station:DISL:MHPA:1,2012-11-05T01:30:00Z,30.6671,-87.9365,3.492,7.44,1111122 
DISL,ioos:station:DISL:MHPA:1,2012-11-05T02:00:00Z,30.6671,-87.9365,3.599,7.72,1111122 
DISL,ioos:station:DISL:MHPA:1,2012-11-05T02:30:00Z,30.6671,-87.9365,3.692,7.74,1111122 
DISL,ioos:station:DISL:MHPA:1,2012-11-05T03:00:00Z,30.6671,-87.9365,3.777,7.65,1111122 
DISL,ioos:station:DISL:MHPA:1,2012-11-05T03:30:00Z,30.6671,-87.9365,3.989,7.71,1111122 
DISL,ioos:station:DISL:MHPA:1,2012-11-05T04:00:00Z,30.6671,-87.9365,4.016,7.61,1111122 
DISL,ioos:station:DISL:MHPA:1,2012-11-05T04:30:00Z,30.6671,-87.9365,4.052,7.4,1111122 
DISL,ioos:station:DISL:MHPA:1,2012-11-05T05:00:00Z,30.6671,-87.9365,4.078,7.29,1111122 
DISL,ioos:station:DISL:MHPA:1,2012-11-05T05:30:00Z,30.6671,-87.9365,4.139,7.32,1111122 
DISL,ioos:station:DISL:MHPA:1,2012-11-05T06:00:00Z,30.6671,-87.9365,4.127,7.41,1111122 
DISL,ioos:station:DISL:MHPA:1,2012-11-05T06:30:00Z,30.6671,-87.9365,4.089,7.04,1111122 
DISL,ioos:station:DISL:MHPA:1,2012-11-05T07:00:00Z,30.6671,-87.9365,4.071,7.07,1111122 
DISL,ioos:station:DISL:MHPA:1,2012-11-05T07:30:00Z,30.6671,-87.9365,4.022,6.87,1111122 
DISL,ioos:station:DISL:MHPA:1,2012-11-05T08:00:00Z,30.6671,-87.9365,3.948,6.89,1111122 
DISL,ioos:station:DISL:MHPA:1,2012-11-05T08:30:00Z,30.6671,-87.9365,3.955,6.92,1111122 
DISL,ioos:station:DISL:MHPA:1,2012-11-05T09:00:00Z,30.6671,-87.9365,3.945,6.55,1111122 
DISL,ioos:station:DISL:MHPA:1,2012-11-05T09:30:00Z,30.6671,-87.9365,3.895,6.66,1111122 
DISL,ioos:station:DISL:MHPA:1,2012-11-05T10:00:00Z,30.6671,-87.9365,3.831,6.02,1111122 
DISL,ioos:station:DISL:MHPA:1,2012-11-05T10:30:00Z,30.6671,-87.9365,3.732,5.69,1111122 
DISL,ioos:station:DISL:MHPA:1,2012-11-05T11:00:00Z,30.6671,-87.9365,3.701,6.35,1111122 
DISL,ioos:station:DISL:MHPA:1,2012-11-05T11:30:00Z,30.6671,-87.9365,3.656,5.55,1111122 
DISL,ioos:station:DISL:MHPA:1,2012-11-05T12:00:00Z,30.6671,-87.9365,3.583,5.71,1111122 
DISL,ioos:station:DISL:MHPA:1,2012-11-05T12:30:00Z,30.6671,-87.9365,3.49,5.82,1111122 
DISL,ioos:station:DISL:MHPA:1,2012-11-05T13:00:00Z,30.6671,-87.9365,3.398,5.56,1111122 
DISL,ioos:station:DISL:MHPA:1,2012-11-05T13:30:00Z,30.6671,-87.9365,3.332,5.68,1111122 
DISL,ioos:station:DISL:MHPA:1,2012-11-05T14:00:00Z,30.6671,-87.9365,3.291,5.51,1111122 
DISL,ioos:station:DISL:MHPA:1,2012-11-05T14:30:00Z,30.6671,-87.9365,3.231,5.54,1111122 
DISL,ioos:station:DISL:MHPA:1,2012-11-05T15:00:00Z,30.6671,-87.9365,3.171,6.23,1111122 
DISL,ioos:station:DISL:MHPA:1,2012-11-05T15:30:00Z,30.6671,-87.9365,3.118,6.67,1111122 
DISL,ioos:station:DISL:MHPA:1,2012-11-05T16:00:00Z,30.6671,-87.9365,3.052,6.63,1111122 
DISL,ioos:station:DISL:MHPA:1,2012-11-05T16:30:00Z,30.6671,-87.9365,3.034,6.85,1111122 
DISL,ioos:station:DISL:MHPA:1,2012-11-05T17:00:00Z,30.6671,-87.9365,3.036,7.39,1111122 
DISL,ioos:station:DISL:MHPA:1,2012-11-05T17:30:00Z,30.6671,-87.9365,3.001,7.36,1111122 
DISL,ioos:station:DISL:MHPA:1,2012-11-05T18:00:00Z,30.6671,-87.9365,2.925,7.69,1111122 
DISL,ioos:station:DISL:MHPA:1,2012-11-05T18:30:00Z,30.6671,-87.9365,2.963,8.27,1111122 
DISL,ioos:station:DISL:MHPA:1,2012-11-05T19:00:00Z,30.6671,-87.9365,3.013,8.23,1111122 
DISL,ioos:station:DISL:MHPA:1,2012-11-05T19:30:00Z,30.6671,-87.9365,3.018,8.14,1111122 
DISL,ioos:station:DISL:MHPA:1,2012-11-05T20:00:00Z,30.6671,-87.9365,3.051,8.49,1111122 
DISL,ioos:station:DISL:MHPA:1,2012-11-05T20:30:00Z,30.6671,-87.9365,3.131,8.75,1111122 
DISL,ioos:station:DISL:MHPA:1,2012-11-05T21:00:00Z,30.6671,-87.9365,3.208,8.45,1111122 
DISL,ioos:station:DISL:MHPA:1,2012-11-05T21:30:00Z,30.6671,-87.9365,3.229,8.82,1111122 
DISL,ioos:station:DISL:MHPA:1,2012-11-05T22:00:00Z,30.6671,-87.9365,3.277,10.18,1111122 
DISL,ioos:station:DISL:MHPA:1,2012-11-05T22:30:00Z,30.6671,-87.9365,3.313,8.31,1111122 
DISL,ioos:station:DISL:MHPA:1,2012-11-05T23:00:00Z,30.6671,-87.9365,3.372,8.06,1111122 
DISL,ioos:station:DISL:MHPA:1,2012-11-05T23:30:00Z,30.6671,-87.9365,3.506,8.38,1111122 
DISL,ioos:station:DISL:MHPA:1,2012-11-06T00:00:00Z,30.6671,-87.9365,3.562,8.24,1111122 
DISL,ioos:station:DISL:MHPA:1,2012-11-06T00:30:00Z,30.6671,-87.9365,3.742,8.21,1111122 
DISL,ioos:station:DISL:MHPA:1,2012-11-06T01:00:00Z,30.6671,-87.9365,3.805,8.28,1111122 
DISL,ioos:station:DISL:MHPA:1,2012-11-06T01:30:00Z,30.6671,-87.9365,3.855,8.29,1111122 
DISL,ioos:station:DISL:MHPA:1,2012-11-06T02:00:00Z,30.6671,-87.9365,3.943,8.03,1111122 
DISL,ioos:station:DISL:MHPA:1,2012-11-06T02:30:00Z,30.6671,-87.9365,4.009,7.89,1111122 
DISL,ioos:station:DISL:MHPA:1,2012-11-06T03:00:00Z,30.6671,-87.9365,3.98,8.13,1111122 
DISL,ioos:station:DISL:MHPA:1,2012-11-06T03:30:00Z,30.6671,-87.9365,4.059,7.81,1111122 
DISL,ioos:station:DISL:MHPA:1,2012-11-06T04:00:00Z,30.6671,-87.9365,4.161,7.93,1111122 
DISL,ioos:station:DISL:MHPA:1,2012-11-06T04:30:00Z,30.6671,-87.9365,4.28,7.42,1111122 
DISL,ioos:station:DISL:MHPA:1,2012-11-06T05:00:00Z,30.6671,-87.9365,4.261,7.74,1111122 
DISL,ioos:station:DISL:MHPA:1,2012-11-06T05:30:00Z,30.6671,-87.9365,4.332,7.42,1111122 
DISL,ioos:station:DISL:MHPA:1,2012-11-06T06:00:00Z,30.6671,-87.9365,4.512,6.62,1111122 
DISL,ioos:station:DISL:MHPA:1,2012-11-06T06:30:00Z,30.6671,-87.9365,4.43,6.83,1111122 
DISL,ioos:station:DISL:MHPA:1,2012-11-06T07:00:00Z,30.6671,-87.9365,4.372,7.04,1111122 
DISL,ioos:station:DISL:MHPA:1,2012-11-06T07:30:00Z,30.6671,-87.9365,4.379,7.15,1111122 
DISL,ioos:station:DISL:MHPA:1,2012-11-06T08:00:00Z,30.6671,-87.9365,4.36,7.11,1111122 
DISL,ioos:station:DISL:MHPA:1,2012-11-06T08:30:00Z,30.6671,-87.9365,4.315,6.68,1111122 
DISL,ioos:station:DISL:MHPA:1,2012-11-06T09:00:00Z,30.6671,-87.9365,4.474,7.17,1111122 
DISL,ioos:station:DISL:MHPA:1,2012-11-06T09:30:00Z,30.6671,-87.9365,4.339,7.13,1111122 
DISL,ioos:station:DISL:MHPA:1,2012-11-06T10:00:00Z,30.6671,-87.9365,4.35,6.6,1111122 
DISL,ioos:station:DISL:MHPA:1,2012-11-06T10:30:00Z,30.6671,-87.9365,4.203,6.86,1111122 
DISL,ioos:station:DISL:MHPA:1,2012-11-06T11:00:00Z,30.6671,-87.9365,3.959,6.27,1111122 
DISL,ioos:station:DISL:MHPA:1,2012-11-06T11:30:00Z,30.6671,-87.9365,3.7,6.48,1111122 
DISL,ioos:station:DISL:MHPA:1,2012-11-06T12:00:00Z,30.6671,-87.9365,3.496,6.58,1111122 
DISL,ioos:station:DISL:MHPA:1,2012-11-06T12:30:00Z,30.6671,-87.9365,3.338,6.35,1111122 
DISL,ioos:station:DISL:MHPA:1,2012-11-06T13:00:00Z,30.6671,-87.9365,3.228,6.37,1111122 
DISL,ioos:station:DISL:MHPA:1,2012-11-06T13:30:00Z,30.6671,-87.9365,3.132,5.91,1111122 
DISL,ioos:station:DISL:MHPA:1,2012-11-06T14:00:00Z,30.6671,-87.9365,3.072,6.14,1111122 
DISL,ioos:station:DISL:MHPA:1,2012-11-06T14:30:00Z,30.6671,-87.9365,3.072,6.51,1111122 
DISL,ioos:station:DISL:MHPA:1,2012-11-06T15:00:00Z,30.6671,-87.9365,3.112,6.16,1111122 